Showing default

TPA-1, 64533

Orbit data source: Space-Track

TPA-1, 64533 is a New Zealander payload satellite in SSO that was launched on Mon, 23 Jun 2025 UTC via an FALCON 9 launch vehicle from the Air Force Western Test Range (AFWTR). Payload-class satellites include a variety of spacecraft equipped with specific instruments for various scientific and technological missions. These include communications satellites like Starlink; space stations such as the ISS; scientific satellites like the Hubble; Earth observation satellites from companies like Planet Labs, Umbra, and HawkEye 360; GPS; miniature CubeSats for education and research; and military/defense satellites.

Loading next visibility...
Identifier
64533, 2025-135F
Orbit
SSO
Country
Flag of NZNZ
Related business
Manufacturer
NANAV/TPA
Mission
Operational Amateur Technology
Bus & Motor
CUBESAT 3U, Unknown motor
Mass
5 kg wet, 5 kg dry
Launch date (UTC)
2025-06-23 (10 months ago)
Launch vehicle
FALCON 9
Launch site
Air Force Western Test Range (AFWTR)
Object type
Payload
Rocket body
Debris
Shape & HBR
Box, 1.5 m
Radar Cross Section
0.035 m², Small (<0.1 m²)

Expand to show TLE details & history
Last TLE update: 17 hours ago

TLE from 17 hours ago
0 TPA-1
1 64533U 25135F   26104.85942075  .00002227  00000-0  10358-3 0  9993
2 64533  97.4603 220.3480 0006466  60.9821 299.2062 15.20987778 45226
Epoch: 2026-04-14T20:37Z
TLE epoch observation values (Epoch: 2026-04-14T20:37:33.952Z)
Latitude
-0.00002°
Longitude
67.92691°
Altitude
503.781 km
Speed
7.614 km/s
True Right ascension
14h 41m 23s
True Declination
0° 00' 00"
Sunlit
Object was in full shadow at epoch
Visualization orbit readout
Latitude
Unknown
Longitude
Unknown
Altitude
Unknown
Speed
Unknown
Apparent Right ascension
Unknown
Apparent Declination
Unknown
Sunlit
N/A
Visualization observer readout
Local Sidereal Time
20:21:53
Azimuth
Unknown
Elevation
Unknown
Doppler factor
Unknown
Orbital elements
Apogee altitude
504.274 km
Perigee altitude
495.379 km
Semi-major axis
6,877.964 km
Eccentricity
0.00065
Inclination
97.4603°
RAAN
220.348°
Arg. of periapsis
60.9821°
True anomaly
299.1415°
Mean anomaly
299.2062°
Eccentric anomaly
299.17385°
Mean motion
3.80499 °/min
Orbital period
94.61 mins
BSTAR
0.00010358
Loading maneuver chart data...
Computing Atmospheric mass density...
Loading historical data...
Loading historical data...
Loading historical data...
Loading historical data...
Loading historical data...
Loading historical data...
Loading historical data...

Documentation

Showing up to 5 results
|